Location: Allie Creek
(37.5926°N, 89.8526°W)
Time: 00:01:43
(UTC+00:00)

SL-16 R/B - Pass Details

Date: 26 April 2024
Orbit: 841 x 845 km, 71.0° (Epoch: 28 May)

Event Time Altitude Azimuth Distance (km) Brightness Sun altitude
Exits shadow 02:44:51 16° 65° (ENE) 2,048 3.9 -21.7°
Drops below altitude 10° 02:46:28 10° 51° (NE) 2,467 4.5 -22.0°
Sets 02:49:24 0° 37° (NE) 3,407 5.4 -22.4°
